Location: Unspecified
(32.7431°N, 0.0000°E)
Time: 14:04:53
(UTC+00:00)

NOAA 16 DEB - Visible Passes

Search period start: 04 April 2026 00:00
Search period end: 14 April 2026 00:00
Orbit: 816 x 836 km, 98.5° (Epoch: 27 March)

Date Brightness Start Highest point End Pass type
(mag) Time Alt. Az. Time Alt. Az. Time Alt. Az.
4 Apr ? 18:42:16 10° S 18:47:37 82° WSW 18:53:02 10° NNW visible
5 Apr ? 20:07:07 10° WSW 20:09:07 12° W 20:11:08 10° WNW visible
6 Apr ? 19:46:03 10° SW 19:49:50 19° W 19:53:39 10° NW visible
7 Apr ? 19:25:56 10° SSW 19:30:35 30° W 19:35:17 10° NW visible
8 Apr ? 19:06:15 10° S 19:11:23 47° W 19:16:35 10° NNW visible
9 Apr ? 18:46:52 10° S 18:52:14 73° WSW 18:57:39 10° NNW visible
10 Apr ? 20:12:50 10° WSW 20:13:46 10° W 20:14:43 10° W visible
11 Apr ? 19:50:59 10° SW 19:54:26 17° W 19:57:57 10° NW visible
12 Apr ? 19:30:41 10° SSW 19:35:10 27° W 19:39:42 10° NW visible
13 Apr ? 19:10:53 10° S 19:15:57 42° W 19:21:03 10° NNW visible
